Location: Oshawa
(43.9000°N, 78.8670°W)
Time: 13:40:03
(UTC-05:00)

Iridium 54 - Visible Passes

Search period start: 21 December 2014 00:00
Search period end: 31 December 2014 00:00
Orbit: 776 x 779 km, 86.4° (Epoch: 20 December)

Date Brightness Start Highest point End Pass type
(mag) Time Alt. Az. Time Alt. Az. Time Alt. Az.
21 Dec 7.5 05:41:44 10° NNE 05:46:13 28° ENE 05:50:40 10° SE visible
21 Dec 5.5 18:39:32 10° SSE 18:44:36 56° E 18:46:32 35° NNE visible
21 Dec 7.9 20:22:08 10° WSW 20:25:42 19° WNW 20:27:06 17° NW visible
22 Dec 8.3 05:09:08 10° NE 05:12:22 16° ENE 05:15:34 10° ESE visible
22 Dec 5.5 06:48:25 10° N 06:53:35 64° W 06:58:42 10° S visible
22 Dec 6.2 18:06:42 10° SE 18:11:14 31° E 18:14:29 17° NNE visible
22 Dec 7.1 19:47:15 10° SW 19:51:53 32° W 19:55:04 18° NNW visible
23 Dec 5.8 06:14:50 10° N 06:20:04 72° E 06:25:15 10° S visible
23 Dec 6.9 17:34:35 10° ESE 17:37:59 18° ENE 17:41:24 10° NE visible
23 Dec 6.1 19:13:05 10° SSW 19:18:11 57° W 19:23:04 11° N visible
24 Dec 6.9 05:41:31 10° NNE 05:46:25 40° E 05:51:17 10° SSE visible
24 Dec 5.4 18:39:26 10° S 18:44:38 80° E 18:49:51 10° N visible
24 Dec 8.4 20:23:39 10° W 20:26:02 13° WNW 20:28:25 10° NW visible
25 Dec 7.8 05:08:33 10° NNE 05:12:39 23° ENE 05:16:43 10° SE visible
25 Dec 5.8 06:48:38 10° NNW 06:53:35 45° W 06:58:30 10° SSW visible
25 Dec 5.8 18:06:17 10° SSE 18:11:11 44° E 18:16:07 10° NNE visible
25 Dec 7.7 19:48:02 10° SW 19:52:07 23° WNW 19:56:13 10° NNW visible
26 Dec 8.4 04:36:23 10° NE 04:38:44 13° ENE 04:41:04 10° E visible
26 Dec 5.4 06:14:54 10° N 06:20:08 81° W 06:25:20 10° S visible
26 Dec 6.5 17:33:42 10° SE 17:37:52 25° E 17:42:03 10° NNE visible
26 Dec 6.8 19:13:28 10° SSW 19:18:20 40° W 19:23:15 10° NNW visible
27 Dec 6.1 05:41:26 10° N 05:46:34 57° E 05:51:40 10° SSE visible
27 Dec 5.7 18:39:31 10° S 18:44:42 72° W 18:49:55 10° N visible
28 Dec 7.2 05:08:14 10° NNE 05:12:52 32° E 05:17:29 10° SE visible
28 Dec 6.2 06:48:58 10° NNW 06:53:32 32° W 06:58:04 10° SW visible
28 Dec 5.5 18:06:03 10° S 18:11:11 64° E 18:16:20 10° N visible
28 Dec 8.2 19:49:09 10° WSW 19:52:23 17° WNW 19:55:39 10° NNW visible
29 Dec 8.0 04:35:28 10° NNE 04:39:02 18° ENE 04:42:35 10° ESE visible
29 Dec 5.6 06:15:03 10° N 06:20:10 57° W 06:25:14 10° SSW visible
29 Dec 6.1 17:33:06 10° SSE 17:37:47 35° E 17:42:29 10° NNE visible
29 Dec 7.4 19:14:04 10° SW 19:18:32 29° WNW 19:23:01 10° NNW visible
30 Dec 5.6 05:41:25 10° N 05:46:40 81° E 05:51:52 10° S visible
30 Dec 6.4 18:39:46 10° SSW 18:44:48 50° W 18:49:53 10° N visible
